TimeCST,TemperatureF,Dew PointF,Humidity,Sea Level PressureIn,VisibilityMPH,Wind Direction,Wind SpeedMPH,Gust SpeedMPH,PrecipitationIn,Events,Conditions,WindDirDegrees,DateUTC
12:04 AM,1.4,-2.2,85,29.96,6.0,Calm,Calm,-,0.00,,Overcast,0,2013-02-03 06:04:00
12:54 AM,1.0,-4.0,79,30.02,9.0,Calm,Calm,-,0.00,,Overcast,0,2013-02-03 06:54:00
1:54 AM,1.9,-2.0,83,30.01,4.0,Calm,Calm,-,0.00,Snow,Light Snow,0,2013-02-03 07:54:00
2:54 AM,3.9,-0.0,84,29.98,5.0,Calm,Calm,-,0.00,Snow,Light Snow,0,2013-02-03 08:54:00
3:54 AM,5.0,1.0,84,29.98,8.0,WSW,5.8,-,0.00,,Overcast,240,2013-02-03 09:54:00
4:54 AM,6.1,1.0,80,29.97,7.0,WSW,5.8,-,0.00,,Overcast,250,2013-02-03 10:54:00
5:16 AM,6.8,1.4,79,29.90,6.0,WSW,4.6,-,0.00,Snow,Light Snow,250,2013-02-03 11:16:00
5:38 AM,6.8,1.4,79,29.91,5.0,West,5.8,-,0.00,Snow,Light Snow,270,2013-02-03 11:38:00
5:54 AM,7.0,1.9,80,29.98,7.0,West,8.1,-,0.00,,Overcast,270,2013-02-03 11:54:00
6:54 AM,8.1,3.0,80,29.99,5.0,WNW,8.1,-,0.00,Snow,Light Snow,300,2013-02-03 12:54:00
7:54 AM,7.0,1.0,77,30.02,10.0,WNW,10.4,-,0.00,,Mostly Cloudy,300,2013-02-03 13:54:00
8:54 AM,7.0,-0.0,73,30.03,10.0,WNW,12.7,-,N/A,,Mostly Cloudy,300,2013-02-03 14:54:00
9:20 AM,8.6,-0.4,67,29.95,10.0,WNW,15.0,24.2,N/A,,Scattered Clouds,300,2013-02-03 15:20:00
9:52 AM,8.6,-0.4,67,29.97,10.0,WNW,15.0,-,N/A,,Mostly Cloudy,290,2013-02-03 15:52:00
9:54 AM,9.0,-0.0,67,30.04,10.0,WNW,16.1,23.0,N/A,,Mostly Cloudy,300,2013-02-03 15:54:00
10:40 AM,10.4,-0.4,62,29.97,10.0,NW,16.1,21.9,N/A,,Scattered Clouds,310,2013-02-03 16:40:00
10:54 AM,10.0,1.0,67,30.04,10.0,WNW,12.7,-,N/A,,Clear,300,2013-02-03 16:54:00
11:54 AM,12.0,1.0,61,30.03,10.0,NW,13.8,-,N/A,,Partly Cloudy,310,2013-02-03 17:54:00
12:54 PM,14.0,-0.0,54,30.02,10.0,WNW,12.7,23.0,N/A,,Clear,290,2013-02-03 18:54:00
1:54 PM,15.1,1.0,54,30.02,10.0,NW,11.5,-,N/A,,Scattered Clouds,310,2013-02-03 19:54:00
2:54 PM,15.1,1.9,56,30.02,10.0,NW,11.5,-,N/A,,Clear,310,2013-02-03 20:54:00
3:54 PM,15.1,1.0,54,30.02,10.0,WNW,9.2,-,N/A,,Partly Cloudy,300,2013-02-03 21:54:00
4:54 PM,12.9,-0.0,56,30.02,10.0,WNW,9.2,-,N/A,,Clear,300,2013-02-03 22:54:00
5:54 PM,12.0,-0.0,59,30.03,10.0,WSW,3.5,-,N/A,,Overcast,250,2013-02-03 23:54:00
6:54 PM,12.0,1.9,64,30.04,10.0,WNW,3.5,-,N/A,,Overcast,290,2013-02-04 00:54:00
7:54 PM,12.0,1.0,61,30.05,10.0,WNW,4.6,-,N/A,,Overcast,290,2013-02-04 01:54:00
8:54 PM,8.1,-0.9,67,30.06,10.0,Calm,Calm,-,N/A,,Partly Cloudy,0,2013-02-04 02:54:00
9:54 PM,8.1,1.9,76,30.06,10.0,Calm,Calm,-,N/A,,Overcast,0,2013-02-04 03:54:00
10:54 PM,9.0,1.9,73,30.05,10.0,Calm,Calm,-,N/A,,Overcast,0,2013-02-04 04:54:00
11:54 PM,10.0,1.9,70,30.05,9.0,Calm,Calm,-,N/A,,Overcast,0,2013-02-04 05:54:00